User: anonymous   Login
Location: Unspecified
(0.0000°N, 0.0000°E)
Time: 23:17:14
(UTC+00:00)
Language:

STARLINK-31536 - Orbit

View from above orbital plane
View from above orbital plane
View from above satellite
View from above satellite

Ground track
Ground track

The orbit is defined by the following mean orbital elements,

1 59192U          26145.66668980 +.00000000 +00000-0 +83180-3 0 00009
2 59192  43.0010  17.8099 0001446 264.4101 108.7670 15.27565621    02
Epoch (UTC): 25 May 2026 16:00:01
Eccentricity: 0.0001446
inclination: 43.0010°
perigee height: 482 km
apogee height: 484 km
right ascension of ascending node: 17.8099°
argument of perigee: 264.4101°
revolutions per day: 15.27565621
mean anomaly at epoch: 108.7670°

The dashed part of the orbit path shows where the satellite is in the earth's shadow,  

DLR